EW0259 Weather Reports


time (UTC)temp
C
wind
direction
speed
KPH
gust
KPH
rain 1hr
cm
rain 24hr
cm
rain mn
cm
humidity
%
barometer
mb
20260508005808 18 5 1.6 8.0 0.00 0.00 0.00 53 1018.9
20260508005224 18 338 1.6 4.8 0.00 0.00 0.00 54 1019.0
20260508004732 18 22 1.6 6.4 0.00 0.00 0.00 53 1018.9
20260508004300 18 313 1.6 6.4 0.00 0.00 0.00 52 1018.9
20260508003757 18 329 1.6 9.7 0.00 0.00 0.00 53 1019.0
20260508003233 18 273 3.2 11.3 0.00 0.00 0.00 53 1019.1
20260508002724 18 299 1.6 4.8 0.00 0.00 0.00 52 1019.1
20260508002232 18 346 1.6 6.4 0.00 0.00 0.00 52 1019.1
20260508001740 18 355 3.2 8.0 0.00 0.00 0.00 53 1019.0
20260508001228 18 348 1.6 8.0 0.00 0.00 0.00 52 1019.0
20260508000736 18 252 1.6 8.0 0.00 0.00 0.00 52 1019.0
20260508000224 18 335 3.2 8.0 0.00 0.00 0.00 52 1019.1
20260507235731 18 299 1.6 8.0 0.00 0.00 0.00 53 1019.1
20260507235239 18 281 3.2 8.0 0.00 0.00 0.00 52 1019.1
20260507234727 18 281 3.2 6.4 0.00 0.00 0.00 52 1019.1
20260507234239 18 146 1.6 8.0 0.00 0.00 0.00 52 1019.1
20260507233727 18 44 4.8 6.4 0.00 0.00 0.00 52 1019.1
20260507233235 18 319 3.2 6.4 0.00 0.00 0.00 50 1019.2
20260507232722 18 324 1.6 4.8 0.00 0.00 0.00 52 1019.2
20260507232310 18 296 1.6 9.7 0.00 0.00 0.00 52 1019.2
20260507231806 18 261 4.8 9.7 0.00 0.00 0.00 53 1019.2
20260507231223 18 271 0.0 6.4 0.00 0.00 0.00 53 1019.3
20260507230811 18 205 1.6 6.4 0.00 0.00 0.00 52 1019.4
20260507230308 18 92 0.0 4.8 0.00 0.00 0.00 52 1019.5
20260507225723 18 9 1.6 4.8 0.00 0.00 0.00 53 1019.5
20260507225311 18 355 3.2 4.8 0.00 0.00 0.00 52 1019.5
20260507224727 18 333 1.6 9.7 0.00 0.00 0.00 53 1019.7
20260507224255 17 307 3.2 9.7 0.00 0.00 0.00 53 1019.6
20260507224223 17 307 3.2 9.7 0.00 0.00 0.00 53 1019.6
20260507223731 18 231 1.6 11.3 0.00 0.00 0.00 53 1019.6
20260507223239 18 261 3.2 11.3 0.00 0.00 0.00 54 1019.5
20260507222806 18 148 1.6 4.8 0.00 0.00 0.00 53 1019.7
20260507222734 18 148 1.6 4.8 0.00 0.00 0.00 53 1019.7
20260507222222 17 50 1.6 6.4 0.00 0.00 0.00 55 1019.7
20260507221734 17 55 1.6 6.4 0.00 0.00 0.00 55 1019.8
20260507221222 17 171 1.6 4.8 0.00 0.00 0.00 58 1019.9
20260507220810 16 320 0.0 6.4 0.00 0.00 0.00 58 1019.8
20260507220227 16 102 1.6 6.4 0.00 0.00 0.00 56 1019.8
20260507215754 17 309 3.2 6.4 0.00 0.00 0.00 57 1019.9
20260507215230 16 178 1.6 8.0 0.00 0.00 0.00 60 1020.0
20260507214738 16 286 3.2 9.7 0.00 0.00 0.00 59 1020.0
20260507214226 16 225 3.2 9.7 0.00 0.00 0.00 59 1020.1
20260507213734 16 295 1.6 4.8 0.00 0.00 0.00 59 1020.2
20260507213222 16 153 0.0 3.2 0.00 0.00 0.00 58 1020.2
20260507212729 16 131 0.0 3.2 0.00 0.00 0.00 58 1020.2
20260507212221 16 150 1.6 4.8 0.00 0.00 0.00 58 1020.4
20260507211729 16 34 0.0 4.8 0.00 0.00 0.00 59 1020.4
20260507211237 16 291 3.2 4.8 0.00 0.00 0.00 60 1020.5
20260507210725 15 135 1.6 6.4 0.00 0.00 0.00 63 1020.5
20260507210313 15 97 3.2 8.0 0.00 0.00 0.00 60 1020.6
20260507205728 15 248 3.2 8.0 0.00 0.00 0.00 60 1020.7
20260507205256 15 228 1.6 6.4 0.00 0.00 0.00 62 1020.6
20260507204812 15 198 1.6 8.0 0.00 0.00 0.00 62 1020.8
20260507204740 15 198 1.6 8.0 0.00 0.00 0.00 62 1020.8
20260507204228 15 296 3.2 8.0 0.00 0.00 0.00 60 1020.8
20260507203736 16 323 3.2 8.0 0.00 0.00 0.00 60 1020.7
20260507203224 16 281 3.2 6.4 0.00 0.00 0.00 61 1020.8
20260507202731 16 257 4.8 6.4 0.00 0.00 0.00 61 1020.8
20260507202239 15 251 1.6 4.8 0.00 0.00 0.00 61 1020.8
20260507201731 15 180 1.6 4.8 0.00 0.00 0.00 63 1020.9
20260507201239 15 309 1.6 4.8 0.00 0.00 0.00 62 1020.9
20260507200806 15 51 1.6 4.8 0.00 0.00 0.00 62 1021.0
20260507200735 15 51 1.6 4.8 0.00 0.00 0.00 62 1021.0
20260507200223 15 334 3.2 6.4 0.00 0.00 0.00 62 1020.9
20260507195730 15 100 1.6 6.4 0.00 0.00 0.00 62 1020.9
20260507195238 15 88 0.0 3.2 0.00 0.00 0.00 63 1020.9
20260507194726 15 167 1.6 4.8 0.00 0.00 0.00 64 1020.9
20260507194254 15 127 4.8 6.4 0.00 0.00 0.00 63 1021.0
20260507193811 15 130 3.2 6.4 0.00 0.00 0.00 63 1021.2
20260507193308 15 58 1.6 4.8 0.00 0.00 0.00 63 1021.2
20260507192724 15 16 3.2 6.4 0.00 0.00 0.00 64 1021.2
20260507192232 15 325 3.2 6.4 0.00 0.00 0.00 63 1021.2
20260507191759 15 309 1.6 6.4 0.00 0.00 0.00 64 1021.1
20260507191728 15 309 1.6 6.4 0.00 0.00 0.00 64 1021.1
20260507191256 15 138 1.6 4.8 0.00 0.00 0.00 65 1021.1
20260507190732 14 252 1.6 6.4 0.00 0.00 0.00 65 1021.1
20260507190240 14 159 3.2 6.4 0.00 0.00 0.00 65 1021.3
20260507185807 14 78 3.2 9.7 0.00 0.00 0.00 66 1021.3
20260507185228 13 83 4.8 11.3 0.00 0.00 0.00 65 1021.2
20260507184736 13 74 1.6 9.7 0.00 0.00 0.00 67 1021.4
20260507184303 13 93 6.4 9.7 0.00 0.00 0.00 67 1021.5
20260507183759 13 182 3.2 9.7 0.00 0.00 0.00 68 1021.5
20260507183728 13 182 3.2 9.7 0.00 0.00 0.00 68 1021.5
20260507183236 13 115 3.2 4.8 0.00 0.00 0.00 68 1021.5
20260507182723 13 269 1.6 6.4 0.00 0.00 0.00 68 1021.6
20260507182231 13 273 3.2 6.4 0.00 0.00 0.00 67 1021.5
20260507181739 13 122 1.6 4.8 0.00 0.00 0.00 66 1021.5
20260507181227 13 105 0.0 4.8 0.00 0.00 0.00 68 1021.5
20260507180735 13 116 0.0 3.2 0.00 0.00 0.00 69 1021.4
20260507180223 13 163 1.6 3.2 0.00 0.00 0.00 68 1021.5
20260507175730 13 108 1.6 4.8 0.00 0.00 0.00 67 1021.6
20260507175222 13 273 1.6 4.8 0.00 0.00 0.00 73 1021.7
20260507174730 12 157 1.6 6.4 0.00 0.00 0.00 73 1021.7
20260507174258 12 265 3.2 9.7 0.00 0.00 0.00 73 1021.7
20260507174226 12 265 3.2 9.7 0.00 0.00 0.00 73 1021.7
20260507173733 12 344 1.6 9.7 0.00 0.00 0.00 73 1021.8
20260507173241 12 85 1.6 8.0 0.00 0.00 0.00 73 1021.7
20260507172808 12 323 3.2 8.0 0.00 0.00 0.00 73 1021.7
20260507172736 12 323 3.2 8.0 0.00 0.00 0.00 73 1021.7
20260507172224 12 258 3.2 4.8 0.00 0.00 0.00 74 1021.6
20260507171732 12 192 0.0 3.2 0.00 0.00 0.00 75 1021.6
20260507171240 12 123 0.0 4.8 0.00 0.00 0.00 76 1021.6
20260507170728 12 196 1.6 4.8 0.00 0.00 0.00 75 1021.6
20260507170256 12 302 0.0 4.8 0.00 0.00 0.00 75 1021.6
20260507165731 12 15 1.6 4.8 0.00 0.00 0.00 77 1021.5
20260507165223 11 269 1.6 4.8 0.00 0.00 0.00 76 1021.5
20260507164807 11 40 1.6 4.8 0.00 0.00 0.00 77 1021.6
20260507164735 11 40 1.6 4.8 0.00 0.00 0.00 77 1021.6
20260507164302 11 296 0.0 6.4 0.00 0.00 0.00 77 1021.6
20260507163723 11 281 1.6 4.8 0.00 0.00 0.00 78 1021.6
20260507163231 11 55 0.0 3.2 0.00 0.00 0.00 79 1021.6
20260507162738 11 302 0.0 4.8 0.00 0.00 0.00 79 1021.7
20260507162226 11 310 1.6 6.4 0.00 0.00 0.00 78 1021.7
20260507161754 11 268 3.2 6.4 0.00 0.00 0.00 78 1021.6
20260507161231 11 325 1.6 3.2 0.00 0.00 0.00 78 1021.7
20260507160759 11 254 1.6 4.8 0.00 0.00 0.00 78 1021.7
20260507160236 11 282 0.0 4.8 0.00 0.00 0.00 78 1021.6
20260507155723 11 336 1.6 4.8 0.00 0.00 0.00 78 1021.6
20260507155231 11 335 0.0 4.8 0.00 0.00 0.00 79 1021.6
20260507154739 11 279 1.6 4.8 0.00 0.00 0.00 79 1021.6
20260507154231 11 266 0.0 3.2 0.00 0.00 0.00 78 1021.6
20260507153739 11 72 0.0 3.2 0.00 0.00 0.00 78 1021.6
20260507153307 11 285 0.0 3.2 0.00 0.00 0.00 79 1021.6
20260507152723 11 288 0.0 4.8 0.00 0.00 0.00 79 1021.6
20260507152231 11 286 0.0 6.4 0.00 0.00 0.00 79 1021.5
20260507151739 11 254 1.6 4.8 0.00 0.00 0.00 79 1021.6
20260507151227 11 257 0.0 3.2 0.00 0.00 0.00 80 1021.5
20260507150754 11 273 0.0 6.4 0.00 0.00 0.00 80 1021.6
20260507150231 11 281 0.0 6.4 0.00 0.00 0.00 79 1021.5
20260507145758 11 286 1.6 4.8 0.00 0.00 0.00 79 1021.7
20260507145726 11 286 1.6 4.8 0.00 0.00 0.00 79 1021.7
20260507145234 11 240 3.2 4.8 0.00 0.00 0.00 78 1021.9
20260507144802 11 32 0.0 4.8 0.00 0.00 0.00 78 1021.8
20260507144238 11 55 0.0 4.8 0.00 0.00 0.00 78 1021.8
20260507143726 11 115 0.0 3.2 0.00 0.00 0.00 78 1021.7
20260507143235 11 135 1.6 3.2 0.00 0.00 0.00 78 1021.8
20260507142722 11 82 0.0 0.0 0.00 0.00 0.00 79 1021.8
20260507142229 11 82 0.0 0.0 0.00 0.00 0.00 80 1021.8
20260507141737 11 79 0.0 3.2 0.00 0.00 0.00 82 1021.8
20260507141225 10 74 0.0 3.2 0.00 0.00 0.00 82 1021.7
20260507140731 10 74 0.0 3.2 0.00 0.00 0.00 82 1021.7
20260507140239 10 109 0.0 0.0 0.00 0.00 0.00 85 1021.7
20260507135726 10 108 0.0 0.0 0.00 0.00 0.00 85 1021.6
20260507135233 10 108 0.0 0.0 0.00 0.00 0.00 86 1021.7
20260507134725 9 108 0.0 0.0 0.00 0.00 0.00 87 1021.7
20260507134233 9 108 0.0 0.0 0.00 0.00 0.00 86 1021.6
20260507133721 9 108 0.0 0.0 0.00 0.00 0.00 86 1021.5
20260507133229 9 108 0.0 0.0 0.00 0.00 0.00 86 1021.5
20260507132736 9 108 0.0 0.0 0.00 0.00 0.00 87 1021.5
20260507132224 9 108 0.0 0.0 0.00 0.00 0.00 88 1021.6
20260507131732 9 136 0.0 0.0 0.00 0.00 0.00 88 1021.5
20260507131240 9 136 0.0 0.0 0.00 0.00 0.00 88 1021.5
20260507130728 9 136 0.0 0.0 0.00 0.00 0.00 88 1021.5
20260507130256 9 136 0.0 0.0 0.00 0.00 0.00 88 1021.5
20260507125731 9 136 0.0 0.0 0.00 0.00 0.00 88 1021.5
20260507125223 9 136 0.0 0.0 0.00 0.00 0.00 88 1021.5
20260507124731 9 136 0.0 0.0 0.00 0.00 0.00 89 1021.5
20260507124239 9 136 0.0 0.0 0.00 0.00 0.00 89 1021.6
20260507123727 9 136 0.0 0.0 0.00 0.00 0.00 89 1021.7
20260507123234 9 136 0.0 0.0 0.00 0.00 0.00 89 1021.7
20260507122721 9 136 0.0 0.0 0.00 0.00 0.00 89 1021.6
20260507122229 9 136 0.0 0.0 0.00 0.00 0.00 89 1021.6
20260507121737 8 136 0.0 0.0 0.00 0.00 0.00 90 1021.6
20260507121305 9 136 0.0 0.0 0.00 0.00 0.00 90 1021.7
20260507120722 9 136 0.0 0.0 0.00 0.00 0.00 90 1021.8
20260507120234 9 136 0.0 0.0 0.00 0.00 0.00 90 1021.8
20260507115801 9 136 0.0 0.0 0.00 0.00 0.00 90 1021.9
20260507115729 9 136 0.0 0.0 0.00 0.00 0.00 90 1021.9
20260507115257 9 136 0.0 0.0 0.00 0.00 0.00 89 1021.9
20260507115225 9 136 0.0 0.0 0.00 0.00 0.00 89 1021.9
20260507114733 9 136 0.0 0.0 0.00 0.00 0.00 89 1021.9
20260507114240 9 136 0.0 0.0 0.00 0.00 0.00 89 1022.0
20260507113728 9 136 0.0 0.0 0.00 0.00 0.00 89 1022.0
20260507113236 9 136 0.0 0.0 0.00 0.00 0.00 89 1022.1
20260507112723 9 136 0.0 0.0 0.00 0.00 0.00 89 1022.1
20260507112230 9 136 0.0 0.0 0.00 0.00 0.00 89 1022.1
20260507111738 10 136 0.0 0.0 0.00 0.00 0.00 88 1022.2
20260507111306 10 136 0.0 0.0 0.00 0.00 0.00 88 1022.2
20260507111234 10 136 0.0 0.0 0.00 0.00 0.00 88 1022.2
20260507110722 10 136 0.0 0.0 0.00 0.00 0.00 88 1022.1
20260507110309 10 136 0.0 0.0 0.00 0.00 0.00 88 1022.2
20260507105805 10 136 0.0 0.0 0.00 0.00 0.00 88 1022.1
20260507105733 10 136 0.0 0.0 0.00 0.00 0.00 88 1022.1
20260507105221 10 136 0.0 0.0 0.00 0.00 0.00 89 1022.2
20260507104809 10 136 0.0 0.0 0.00 0.00 0.00 89 1022.1
20260507104737 10 136 0.0 0.0 0.00 0.00 0.00 89 1022.1
20260507104229 10 136 0.0 0.0 0.00 0.00 0.00 89 1022.2
20260507103757 10 136 0.0 0.0 0.00 0.00 0.00 89 1022.2
20260507103233 10 136 0.0 0.0 0.00 0.00 0.00 89 1022.3
20260507102740 10 136 0.0 0.0 0.00 0.00 0.00 89 1022.3
20260507102228 10 136 0.0 0.0 0.00 0.00 0.00 89 1022.4
20260507101756 10 136 0.0 0.0 0.00 0.00 0.00 89 1022.5
20260507101232 10 136 0.0 0.0 0.00 0.00 0.00 88 1022.3
20260507100759 10 136 0.0 0.0 0.00 0.00 0.00 88 1022.3
20260507100236 10 136 0.0 0.0 0.00 0.00 0.00 88 1022.3
20260507095722 10 136 0.0 0.0 0.00 0.00 0.00 89 1022.3
20260507095230 10 136 0.0 0.0 0.00 0.00 0.00 89 1022.3
20260507094738 10 137 0.0 0.0 0.00 0.00 0.00 89 1022.3
20260507094226 10 137 0.0 0.0 0.00 0.00 0.00 88 1022.2
20260507093738 10 137 0.0 1.6 0.00 0.00 0.00 88 1022.3
20260507093226 10 137 0.0 3.2 0.00 0.00 0.00 88 1022.3
20260507092733 10 155 0.0 3.2 0.00 0.00 0.00 89 1022.4
20260507092221 10 88 0.0 0.0 0.00 0.00 0.00 89 1022.3
20260507091729 10 88 0.0 3.2 0.00 0.00 0.00 89 1022.2
20260507091236 10 88 0.0 3.2 0.00 0.00 0.00 89 1022.3
20260507090804 10 88 0.0 3.2 0.00 0.00 0.00 89 1022.3
20260507090240 10 88 0.0 3.2 0.00 0.00 0.00 89 1022.2
20260507085727 10 355 0.0 3.2 0.00 0.00 0.00 89 1022.3
20260507085255 10 340 0.0 0.0 0.00 0.00 0.00 89 1022.1
20260507085223 10 340 0.0 0.0 0.00 0.00 0.00 89 1022.1
20260507084730 10 271 0.0 0.0 0.00 0.00 0.00 89 1022.1
20260507084222 10 271 0.0 0.0 0.00 0.00 0.00 89 1021.9
20260507083730 10 271 0.0 0.0 0.00 0.00 0.00 89 1022.1
20260507083238 10 271 0.0 0.0 0.00 0.00 0.00 89 1022.0
20260507082725 10 270 0.0 3.2 0.00 0.00 0.00 89 1022.0
20260507082232 10 277 0.0 3.2 0.00 0.00 0.00 89 1022.0
20260507081740 10 336 0.0 3.2 0.00 0.00 0.00 89 1022.0
20260507081228 10 224 0.0 3.2 0.00 0.00 0.00 89 1022.0
20260507080756 10 224 0.0 3.2 0.00 0.00 0.00 89 1022.0
20260507080724 10 224 0.0 3.2 0.00 0.00 0.00 89 1022.0
20260507080232 10 224 0.0 3.2 0.00 0.00 0.00 89 1021.9
20260507075739 10 277 0.0 3.2 0.00 0.00 0.00 89 1021.9
20260507075227 10 273 0.0 3.2 0.00 0.00 0.00 88 1022.0
20260507074739 10 273 1.6 3.2 0.00 0.00 0.00 88 1022.0
20260507074227 10 239 0.0 3.2 0.00 0.00 0.00 89 1021.9
20260507073735 10 192 0.0 4.8 0.00 0.00 0.00 89 1021.9
20260507073223 10 192 1.6 4.8 0.00 0.00 0.00 89 1021.9
20260507072809 11 290 0.0 0.0 0.00 0.00 0.00 89 1021.9
20260507072738 11 290 0.0 0.0 0.00 0.00 0.00 89 1021.9
20260507072307 11 290 0.0 0.0 0.00 0.00 0.00 89 1022.0
20260507071722 11 290 0.0 0.0 0.00 0.00 0.00 89 1021.9
20260507071230 11 355 0.0 0.0 0.00 0.00 0.00 89 1021.9
20260507070757 11 355 0.0 0.0 0.00 0.00 0.00 89 1021.9
20260507070234 11 230 0.0 3.2 0.00 0.00 0.00 89 1022.0
20260507065811 11 247 0.0 4.8 0.00 0.00 0.00 89 1022.0
20260507065739 11 247 0.0 4.8 0.00 0.00 0.00 89 1022.0
20260507065227 11 266 1.6 4.8 0.00 0.00 0.00 88 1022.0
20260507064735 11 271 0.0 4.8 0.00 0.00 0.00 88 1022.0
20260507064223 11 256 1.6 4.8 0.00 0.00 0.00 88 1021.9
20260507063735 11 223 0.0 0.0 0.00 0.00 0.00 88 1022.0
20260507063223 11 297 0.0 3.2 0.00 0.00 0.00 88 1022.0
20260507062810 11 296 0.0 3.2 0.00 0.00 0.00 87 1022.0
20260507062738 11 296 0.0 3.2 0.00 0.00 0.00 87 1022.0
20260507062226 11 294 0.0 3.2 0.00 0.00 0.00 87 1022.0
20260507061754 11 290 1.6 4.8 0.00 0.00 0.00 87 1022.1
20260507061310 11 290 1.6 4.8 0.00 0.00 0.00 87 1022.0
20260507060726 11 300 0.0 3.2 0.00 0.00 0.00 86 1022.1
20260507060254 11 342 0.0 4.8 0.00 0.00 0.00 86 1022.1
20260507055729 11 229 1.6 4.8 0.00 0.00 0.00 86 1022.2
20260507055237 11 247 0.0 8.0 0.00 0.00 0.00 86 1022.2
20260507054725 11 351 3.2 8.0 0.00 0.00 0.00 86 1022.1
20260507054253 11 5 0.0 3.2 0.00 0.00 0.00 86 1022.2
20260507053810 11 48 0.0 3.2 0.00 0.00 0.00 86 1022.1
20260507053738 11 48 0.0 3.2 0.00 0.00 0.00 86 1022.1
20260507053306 11 17 1.6 6.4 0.00 0.00 0.00 85 1022.1
20260507052721 11 305 1.6 6.4 0.00 0.00 0.00 85 1022.1
20260507052229 11 273 1.6 4.8 0.00 0.00 0.00 84 1022.2
20260507051737 11 317 1.6 4.8 0.00 0.00 0.00 83 1022.1
20260507051305 12 360 1.6 4.8 0.00 0.00 0.00 83 1022.2
20260507051233 12 360 1.6 4.8 0.00 0.00 0.00 83 1022.2
20260507050724 12 299 0.0 4.8 0.00 0.00 0.00 82 1022.2
20260507050232 12 78 0.0 4.8 0.00 0.00 0.00 82 1022.1
20260507045739 12 114 1.6 4.8 0.00 0.00 0.00 82 1022.2
20260507045227 12 40 0.0 0.0 0.00 0.00 0.00 81 1022.2
20260507044755 12 42 0.0 0.0 0.00 0.00 0.00 81 1022.2
20260507044723 12 42 0.0 0.0 0.00 0.00 0.00 81 1022.2
20260507044231 12 42 0.0 0.0 0.00 0.00 0.00 81 1022.2
20260507043739 12 346 0.0 0.0 0.00 0.00 0.00 81 1022.1
20260507043307 12 47 0.0 1.6 0.00 0.00 0.00 81 1022.0
20260507042722 12 291 0.0 1.6 0.00 0.00 0.00 81 1022.1
20260507042229 12 288 0.0 0.0 0.00 0.00 0.00 81 1022.0
20260507041736 12 288 0.0 0.0 0.00 0.00 0.00 81 1022.0
20260507041224 12 294 0.0 0.0 0.00 0.00 0.00 81 1022.2
20260507040736 12 293 0.0 0.0 0.00 0.00 0.00 80 1022.2
20260507040224 12 294 0.0 3.2 0.00 0.00 0.00 81 1022.1
20260507035731 12 293 0.0 3.2 0.00 0.00 0.00 80 1022.0
20260507035259 12 52 0.0 0.0 0.00 0.00 0.00 80 1022.1
20260507035227 12 52 0.0 0.0 0.00 0.00 0.00 80 1022.1
20260507034735 12 92 0.0 3.2 0.00 0.00 0.00 80 1022.0
20260507034223 12 84 0.0 4.8 0.00 0.00 0.00 80 1021.9
20260507033811 12 266 0.0 4.8 0.00 0.00 0.00 80 1021.9
20260507033228 12 266 0.0 3.2 0.00 0.00 0.00 80 1021.8
20260507032735 12 265 0.0 3.2 0.00 0.00 0.00 79 1021.8
20260507032305 12 298 0.0 4.8 0.00 0.00 0.00 79 1021.7
20260507031739 12 290 0.0 4.8 0.00 0.00 0.00 79 1021.6
20260507031227 12 81 0.0 3.2 0.00 0.00 0.00 78 1021.6
20260507030755 12 198 0.0 4.8 0.00 0.00 0.00 78 1021.6
20260507030311 12 271 0.0 4.8 0.00 0.00 0.00 78 1021.5
20260507025726 12 288 0.0 3.2 0.00 0.00 0.00 78 1021.6
20260507025238 13 65 0.0 8.0 0.00 0.00 0.00 78 1021.5
20260507024726 13 331 0.0 6.4 0.00 0.00 0.00 78 1021.7
20260507024233 13 274 1.6 6.4 0.00 0.00 0.00 77 1021.7
20260507023721 13 315 1.6 3.2 0.00 0.00 0.00 77 1021.5
20260507023229 13 313 1.6 3.2 0.00 0.00 0.00 77 1021.4
20260507022735 13 109 0.0 3.2 0.00 0.00 0.00 77 1021.4
20260507022222 13 311 0.0 3.2 0.00 0.00 0.00 77 1021.4
20260507021810 13 319 0.0 3.2 0.00 0.00 0.00 77 1021.4
20260507021226 13 298 0.0 4.8 0.00 0.00 0.00 76 1021.3
20260507020734 13 143 1.6 4.8 0.00 0.00 0.00 77 1021.4
20260507020301 13 242 1.6 4.8 0.00 0.00 0.00 76 1021.5
20260507015721 13 313 0.0 3.2 0.00 0.00 0.00 76 1021.5
20260507015228 13 251 0.0 3.2 0.00 0.00 0.00 77 1021.4
20260507014735 13 304 0.0 3.2 0.00 0.00 0.00 77 1021.4
20260507014303 13 252 1.6 4.8 0.00 0.00 0.00 77 1021.4
20260507013740 13 295 1.6 4.8 0.00 0.00 0.00 77 1021.3
20260507013308 13 355 1.6 4.8 0.00 0.00 0.00 77 1021.4
20260507013236 13 355 1.6 4.8 0.00 0.00 0.00 77 1021.4
20260507012723 13 61 1.6 4.8 0.00 0.00 0.00 77 1021.4
20260507012231 13 68 0.0 3.2 0.00 0.00 0.00 78 1021.4
20260507011739 13 68 1.6 3.2 0.00 0.00 0.00 77 1021.4
20260507011227 13 261 0.0 8.0 0.00 0.00 0.00 77 1021.4
20260507010735 13 273 3.2 11.3 0.00 0.00 0.00 77 1021.4
20260507010303 13 292 4.8 12.9 0.00 0.00 0.00 76 1021.4